Weather Roundup
Issued by NWS Chicago, IL

Home | Current Version | Previous Version | Graphics & Text | Print | Product List | Glossary On
Versions: 1 2 3 4 5 6 7 8 9 10 11 12 13 14 15 16 17 18 19 20 21 22 23 24 25 26 27 28 29 30 31 32 33 34 35 36 37 38 39 40 41 42 43 44 45 46 47 48 49 50
000
NZUS59 KLOT 180306
HRRLOT

CHICAGO AREA WEATHER ROUNDUP
NATIONAL WEATHER SERVICE CHICAGO/ROMEOVILLE IL
900 PM CST WED DEC 17 2014

NOTE: "FAIR" INDICATES FEW OR NO CLOUDS BELOW 12,000 FEET WITH NO
SIGNIFICANT WEATHER AND/OR OBSTRUCTIONS TO VISIBILITY.

* THESE STATIONS ARE NOT UNDER NWS QUALITY CONTROL. THEY ALSO MAY NOT
  REPORT WEATHER SUCH AS PRECIPITATION OR FOG.

ILZ005-006-012>014-019>023-180400-
NORTHEAST ILLINOIS

CITY           SKY/WX    TMP DP  RH WIND       PRES   REMARKS
OHARE          MOCLDY    25  15  66 N10       30.25F WCI  15
MIDWAY         PTCLDY    27  17  66 NW9       30.26F WCI  18
AURORA         CLOUDY    25  17  72 NW8       30.28S WCI  16
LANSING*       MOCLDY    25  18  73 W5        30.27S WCI  19
JOLIET*        CLOUDY    24  16  74 CALM      30.29S
WAUKEGAN       MOCLDY    22  14  71 NW7       30.26R WCI  13
DUPAGE AIRPORT CLOUDY    24  16  71 NW7       30.25F WCI  16
WHEELING       CLOUDY    25  15  66 NW7       30.28F WCI  17
KANKAKEE*      CLOUDY    26  20  78 W7        30.29S WCI  19
MORRIS*        CLOUDY    25  20  82 N3        30.29R
LEWIS AIRPORT* CLOUDY    24  18  76 W6        30.28R WCI  17
NORTHERLY IS     N/A     26  17  68 NW6         N/A  WCI  20
$$

WIZ051-052-058>065-066-070>072-180400-
SOUTHEAST WISCONSIN

CITY           SKY/WX    TMP DP  RH WIND       PRES   REMARKS
MILWAUKEE      CLEAR     22  13  68 W9        30.25S WCI  12
KENOSHA*       PTCLDY    21  15  78 W8        30.26S WCI  11
RACINE*        PTCLDY    21  14  74 W7        30.27S WCI  12
BURLINGTON     PTCLDY    19  13  79 W5        30.27R WCI  12
WAUKESHA       CLEAR     19  14  79 W9        30.26R WCI   9
$$

INZ001>003-010>013-019-020-180400-
NORTHWEST INDIANA

CITY           SKY/WX    TMP DP  RH WIND       PRES   REMARKS
GARY*          PTCLDY    26  17  70 W5        30.28S WCI  20
MICHIGAN CITY* NOT AVBL
RENSSELAER*    NOT AVBL
VALPARAISO     CLOUDY    25  17  72 W8        30.26S WCI  16
$$

LMZ740>746-180400-
SOUTHERN LAKE MICHIGAN

STATION/POSITION TIME  SKY/WX   TEMP WIND        PRES    VSBY
                                AIR  DIR/SP/G
                 (UTC)          (F)  (DEG/KT/KT) (MB)    (MI)
HARRISON CRIB    0300            25  320/ 12/ 16   N/A
BURNHAM HARBOR   0300            26  310/  7/ 10   N/A
CALUMET HARBOR   0300            25  310/  7/ 11 1023.4F
BURNS HARBOR     NOT AVBL
MICHIGAN CITY    NOT AVBL
$$

ABBREVIATIONS USED IN REMARKS
   TC - TEMPERATURE IN CELSIUS
  WCI - WIND CHILL INDEX
   HX - HEAT INDEX
  VSB - VISIBILITY
$$



USA.gov is the U.S. government's official web portal to all federal, state and local government web resources and services.